{"data":{"norad_id":67588,"epoch":"2026-09-18T22:15:16.424352Z","epoch_age_seconds":150958,"freshness":"FRESH","line1":"1 67588U 26017A   26261.92727343  .00000007  00000+0  00000+0 0  9999","line2":"2 67588  55.1550  84.9940 0020771 263.5416  96.2731  2.00568884433497","mean_motion":2.00568884,"eccentricity":0.0020771,"inclination_deg":55.155,"raan_deg":84.994,"arg_perigee_deg":263.5416,"mean_anomaly_deg":96.2731,"bstar":0,"rev_number":43349,"period_min":717.95782639943,"perigee_km":20126.577149031,"apogee_km":20236.912209503,"semimajor_km":26559.881679267,"source":"CELESTRAK","updated_at":"2026-09-20T09:00:46.121785Z"}}